User: anonymous   Login
Location: Unspecified
(0.0000°N, 0.0000°E)
Time: 03:15:40
(UTC+00:00)
Language:

MTI - Orbit

View from above orbital plane
View from above orbital plane
View from above satellite
View from above satellite

Ground track
Ground track

The orbit data is extracted from the following two-line orbital elements,

1 26102U 00014A   19083.56947044  .00003441  00000-0  58201-4 0  9998
2 26102  97.5644 297.5759 0009857  81.1818 279.0556 15.52308762 54493
Epoch (UTC): 24 March 2019 13:40:02
Eccentricity: 0.0009857
inclination: 97.5644°
perigee height: 403 km
apogee height: 416 km
right ascension of ascending node: 297.5759°
argument of perigee: 81.1818°
revolutions per day: 15.52308762
mean anomaly at epoch: 279.0556°
orbit number at epoch: 5449

The dashed part of the orbit path shows where the satellite is in the earth's shadow,  

DLR